STARLINK-36855, 68121

Orbit data source: Space-Track

STARLINK-36855, 68121 is a payload satellite owned by SpaceX/Seattle (US) in SSO that was launched on Sun, 08 Mar 2026 UTC via an FALCON 9 launch vehicle from the Air Force Western Test Range (AFWTR). Payload-class satellites include a variety of spacecraft equipped with specific instruments for various scientific and technological missions. These include communications satellites like Starlink; space stations such as the ISS; scientific satellites like the Hubble; Earth observation satellites from companies like Planet Labs, Umbra, and HawkEye 360; GPS; miniature CubeSats for education and research; and military/defense satellites.

Loading next visibility...
Identifier
68121, 2026-044W
Orbit
SSO
Country
Flag of USUS
Related business
Manufacturer
SpaceX/Seattle
Mission
Operational spacecraft
Bus & Motor
STARLINK V2MO, Unknown motor
Mass
575 kg wet, ~530 kg dry
Launch date (UTC)
2026-03-08 (2 months ago)
Launch vehicle
FALCON 9
Launch site
Air Force Western Test Range (AFWTR)
Object type
Payload
Rocket body
Debris
Shape & HBR
Unknown shape, 17.7 m
Radar Cross Section
RCS unknown

Expand to show TLE details & history
Last TLE update: 12 hours ago

TLE from 12 hours ago
0 STARLINK-36855
1 68121U 26044W   26119.43428599  .00028022  00000-0  86690-3 0  9993
2 68121  97.2856  80.4812 0002634  99.8947 260.2593 15.33449634  9368
Epoch: 2026-04-29T10:25Z
TLE epoch observation values (Epoch: 2026-04-29T10:25:22.309Z)
Latitude
-0.00004°
Longitude
66.74295°
Altitude
468.947 km
Speed
7.632 km/s
True Right ascension
05h 21m 55s
True Declination
0° 00' 00"
Sunlit
Object was in daylight at epoch
Visualization orbit readout
Latitude
Unknown
Longitude
Unknown
Altitude
Unknown
Speed
Unknown
Apparent Right ascension
Unknown
Apparent Declination
Unknown
Sunlit
N/A
Visualization observer readout
Local Sidereal Time
05:38:40
Azimuth
Unknown
Elevation
Unknown
Doppler factor
Unknown
Orbital elements
Apogee altitude
464.274 km
Perigee altitude
460.67 km
Semi-major axis
6,840.609 km
Eccentricity
0.00026
Inclination
97.2856°
RAAN
80.4812°
Arg. of periapsis
99.8947°
True anomaly
260.22955°
Mean anomaly
260.2593°
Eccentric anomaly
260.24443°
Mean motion
3.8362 °/min
Orbital period
93.84 mins
BSTAR
0.0008669
Loading maneuver chart data...
Computing Atmospheric mass density...
Loading historical data...
Loading historical data...
Loading historical data...
Loading historical data...
Loading historical data...
Loading historical data...
Loading historical data...

Documentation

Showing up to 5 results
|